Content
SEND FEEDBACK

Daily
Averages
Monthly
Summary
Italy

BARI, ITALY


Home > Europe > Italy
Elevation: 144 feet     Latitude: 41 08N     Longitude: 016 47E

WEATHER
 
SELECT A DAY
Number of Records: 295,319;   Date Range: 7/1/96 - 9/15/14
 
SHARE

PRINT THIS DATA

[ ← Previous Day ]
WEATHER ALMANAC - APRIL 26, 2013
[ Next Day → ]
[ °C ]   °F
Weather ElementAverageHighLow
Temperature65.1 °F82.4 °F (3:50 pm)50 °F (4:50 am)
Dewpoint51.4 °F59 °F (10:20 am)39.2 °F (3:50 pm)
Humidity66.9 %100 % (12:50 am)21 % (3:50 pm)
Barometer30.06 in30.18 in (12:50 am)29.95 in (4:20 pm)
Wind Speed6 mph16.1 mph (12:50 pm)
Weather ElementAverage
Visibility3.7 mi
Wind DirectionESE (125.4 °)

Weather ElementTotal
Precipitation---
Cooling Degree Days1.2 (Base 65)
Growing Degree Days16.2 (Base 50)
Averaged from 46 records on April 26, 2013
WEATHER CONDITIONS BREAKOUT
WIND DIRECTION BREAKOUT
WEATHER BY HOUR - APRIL 26, 2013
[ °C ]   °F
Local TimeTemperatureDewpointHumidityBarometerVisibilityWind DirectionWind SpeedGust SpeedPrecipitationEventsConditions
12:50 AM53.6 °F53.6 °F100 %30.18 in3.7 miSSW (210°)3.5 mph
1:20 AM53.6 °F53.6 °F100 %30.18 in3.7 miSSW (210°)4.6 mph
1:50 AM53.6 °F53.6 °F100 %30.18 in3.7 miSW (220°)4.6 mph
2:20 AM51.8 °F51.8 °F100 %30.15 in3.7 miSW (220°)4.6 mph
3:20 AM51.8 °F51.8 °F100 %30.15 inSW (220°)4.6 mphClear
3:50 AM51.8 °F51.8 °F100 %30.15 inSW (220°)5.8 mphClear
4:20 AM51.8 °F50.0 °F94 %30.15 inCalmClear
4:50 AM50.0 °F50.0 °F100 %30.15 inVariable1.2 mphClear
5:20 AM51.8 °F50.0 °F94 %30.12 inCalmClear
5:50 AM50.0 °F50.0 °F100 %30.12 inCalmClear
6:20 AM51.8 °F51.8 °F100 %30.12 inVariable2.3 mphClear
6:50 AM51.8 °F51.8 °F100 %30.12 inVariable2.3 mphClear
7:20 AM53.6 °F53.6 °F100 %30.12 inSouth (170°)1.2 mphClear
7:50 AM59.0 °F55.4 °F88 %30.12 inCalmClear
8:20 AM60.8 °F55.4 °F82 %30.12 inCalmClear
8:50 AM62.6 °F51.8 °F68 %30.12 inENE (70°)4.6 mphClear
9:20 AM66.2 °F53.6 °F64 %30.12 inEast (90°)4.6 mphClear
9:50 AM68.0 °F55.4 °F64 %30.12 inEast (90°)4.6 mphClear
10:20 AM69.8 °F59.0 °F68 %30.09 inENE (70°)5.8 mphClear
10:50 AM71.6 °F59.0 °F64 %30.09 inEast (100°)10.4 mphClear
11:20 AM71.6 °F59.0 °F64 %30.09 inEast (100°)11.5 mphClear
11:50 AM71.6 °F59.0 °F64 %30.09 inEast (90°)13.8 mphClear
12:20 PM73.4 °F59.0 °F61 %30.06 inESE (110°)11.5 mphClear
12:50 PM71.6 °F57.2 °F60 %30.06 inEast (100°)16.1 mphClear
1:20 PM71.6 °F57.2 °F60 %30.04 inESE (110°)11.5 mphClear
1:50 PM75.2 °F59.0 °F57 %30.04 inEast (100°)12.7 mphClear
2:20 PM73.4 °F57.2 °F57 %30.06 inESE (110°)11.5 mphClear
2:50 PM75.2 °F55.4 °F50 %30.06 inEast (90°)12.7 mphClear
3:20 PM78.8 °F44.6 °F30 %29.98 inEast (90°)11.5 mphClear
3:50 PM82.4 °F39.2 °F21 %29.98 inSSE (160°)10.4 mphClear
4:20 PM80.6 °F41.0 °F24 %29.95 inSSE (160°)9.2 mphClear
4:50 PM80.6 °F42.8 °F26 %29.95 inSouth (180°)8.1 mphClear
5:20 PM78.8 °F42.8 °F28 %29.95 inSouth (170°)9.2 mphClear
5:50 PM77.0 °F44.6 °F32 %29.95 inSouth (180°)9.2 mphClear
6:20 PM77.0 °F44.6 °F32 %29.95 inSouth (180°)6.9 mphClear
6:50 PM75.2 °F44.6 °F34 %29.95 inSouth (190°)4.6 mphClear
7:20 PM71.6 °F44.6 °F38 %29.95 inSouth (180°)4.6 mphClear
7:50 PM69.8 °F44.6 °F40 %29.95 inVariable3.5 mphClear
8:20 PM68.0 °F46.4 °F46 %29.98 inWSW (250°)2.3 mphClear
8:50 PM64.4 °F48.2 °F56 %29.98 inSW (220°)5.8 mphClear
9:20 PM64.4 °F51.8 °F64 %29.98 inNW (320°)5.8 mphClear
9:50 PM62.6 °F50.0 °F63 %29.98 inWSW (250°)4.6 mphClear
10:20 PM64.4 °F51.8 °F64 %29.98 inWest (270°)4.6 mphClear
10:50 PM60.8 °F51.8 °F72 %29.98 inVariable2.3 mphClear
11:20 PM60.8 °F51.8 °F72 %29.98 inWest (270°)4.6 mphClear
11:50 PM60.8 °F53.6 °F77 %29.98 inVariable3.5 mphClear
Hourly data recorded from LIBD, located miles away from Bari, Italy







STORIES FROM OUR PARTNERS